When you browse on this site, cookies collect data to enhance your experience and personalize the content and advertising you see.
Visit our Privacy Policy to learn more. By continuing to use the site, you agree to this use of cookies and data.
  • en France
  • Liste des pays
  • À 7 jours
  • Température de l'eau
  • Carte météo
  • Widgets météo
  • user-avatar
    Se connecter

    Météo par heure à Bulla Regia

    Ce jour, 19 Août, Lundi

    Heure Température Précipitation Vent Pression Humidité
    00:00 +28°C° 0 mm 1 m/s 703 mmHg 42%
    01:00 +25°C° 0 mm 0 m/s 703 mmHg 46%
    02:00 +25°C° 0 mm 0 m/s 703 mmHg 47%
    03:00 +24°C° 0 mm 0 m/s 703 mmHg 48%
    04:00 +24°C° 0 mm 0 m/s 703 mmHg 49%
    05:00 +24°C° 0 mm 0 m/s 703 mmHg 48%
    06:00 +25°C° 0 mm 0 m/s 703 mmHg 48%
    07:00 +25°C° 0 mm 0 m/s 703 mmHg 47%
    08:00 +29°C° 0 mm 1 m/s 704 mmHg 41%
    09:00 +31°C° 0 mm 1 m/s 704 mmHg 36%
    10:00 +33°C° 0 mm 1 m/s 704 mmHg 30%
    11:00 +35°C° 0 mm 2 m/s 705 mmHg 27%
    12:00 +37°C° 0 mm 2 m/s 705 mmHg 23%
    13:00 +38°C° 0 mm 3 m/s 705 mmHg 20%
    14:00 +38°C° 0 mm 4 m/s 704 mmHg 19%
    15:00 +39°C° 0 mm 5 m/s 704 mmHg 19%
    16:00 +39°C° 0 mm 5 m/s 704 mmHg 19%
    17:00 +36°C° 0 mm 5 m/s 704 mmHg 24%
    18:00 +33°C° 0 mm 4 m/s 704 mmHg 29%
    19:00 +30°C° 0 mm 4 m/s 704 mmHg 35%
    20:00 +29°C° 0 mm 3 m/s 704 mmHg 41%
    21:00 +28°C° 0 mm 2 m/s 704 mmHg 48%
    22:00 +27°C° 0 mm 1 m/s 704 mmHg 55%
    23:00 +26°C° 0 mm 1 m/s 704 mmHg 56%

    Demain, 20 Août, Mardi

    Heure Température Précipitation Vent Pression Humidité
    00:00 +26°C° 0 mm 1 m/s 704 mmHg 58%
    01:00 +25°C° 0 mm 1 m/s 704 mmHg 60%
    02:00 +25°C° 0 mm 1 m/s 704 mmHg 63%
    03:00 +24°C° 0 mm 1 m/s 703 mmHg 66%
    04:00 +24°C° 0 mm 1 m/s 703 mmHg 70%
    05:00 +24°C° 0 mm 1 m/s 703 mmHg 68%
    06:00 +24°C° 0 mm 1 m/s 703 mmHg 66%
    07:00 +25°C° 0 mm 1 m/s 703 mmHg 64%
    08:00 +27°C° 0 mm 2 m/s 704 mmHg 55%
    09:00 +29°C° 0 mm 2 m/s 704 mmHg 45%
    10:00 +31°C° 0 mm 3 m/s 705 mmHg 35%
    11:00 +34°C° 0 mm 2 m/s 705 mmHg 31%
    12:00 +36°C° 0 mm 2 m/s 705 mmHg 27%
    13:00 +38°C° 0 mm 2 m/s 705 mmHg 22%
    14:00 +38°C° 0 mm 2 m/s 704 mmHg 21%
    15:00 +38°C° 0 mm 3 m/s 704 mmHg 20%
    16:00 +40°C° 0 mm 4 m/s 704 mmHg 19%
    17:00 +37°C° 0 mm 4 m/s 704 mmHg 24%
    18:00 +35°C° 0 mm 4 m/s 704 mmHg 30%
    19:00 +33°C° 0 mm 4 m/s 704 mmHg 36%
    20:00 +30°C° 0 mm 3 m/s 704 mmHg 41%
    21:00 +29°C° 0 mm 3 m/s 704 mmHg 46%
    22:00 +27°C° 0 mm 2 m/s 705 mmHg 52%
    23:00 +26°C° 0 mm 2 m/s 705 mmHg 54%

    Après-demain, 21 Août, Mercredi

    Heure Température Précipitation Vent Pression Humidité
    00:00 +26°C° 0 mm 2 m/s 705 mmHg 56%
    01:00 +25°C° 0 mm 2 m/s 704 mmHg 58%
    02:00 +24°C° 0 mm 1 m/s 704 mmHg 62%
    03:00 +24°C° 0 mm 1 m/s 704 mmHg 66%
    04:00 +23°C° 0 mm 1 m/s 704 mmHg 69%
    05:00 +23°C° 0 mm 1 m/s 704 mmHg 71%
    06:00 +23°C° 0 mm 1 m/s 704 mmHg 72%
    07:00 +23°C° 0 mm 1 m/s 705 mmHg 74%
    08:00 +25°C° 0 mm 1 m/s 705 mmHg 65%
    09:00 +27°C° 0 mm 1 m/s 705 mmHg 55%
    10:00 +29°C° 0 mm 1 m/s 706 mmHg 46%
    11:00 +30°C° 0 mm 2 m/s 706 mmHg 40%
    12:00 +32°C° 0 mm 2 m/s 706 mmHg 35%
    13:00 +35°C° 0 mm 2 m/s 706 mmHg 30%
    14:00 +35°C° 0 mm 3 m/s 705 mmHg 31%
    15:00 +35°C° 0 mm 3 m/s 705 mmHg 32%
    16:00 +35°C° 0 mm 3 m/s 705 mmHg 33%
    17:00 +33°C° 0 mm 4 m/s 704 mmHg 43%
    18:00 +30°C° 0 mm 4 m/s 704 mmHg 52%
    19:00 +28°C° 0 mm 4 m/s 704 mmHg 62%
    20:00 +27°C° 0 mm 3 m/s 705 mmHg 68%
    21:00 +26°C° 0 mm 2 m/s 705 mmHg 73%
    22:00 +25°C° 0 mm 2 m/s 705 mmHg 79%
    23:00 +24°C° 0 mm 1 m/s 705 mmHg 80%

    22 Août, Jeudi

    Heure Température Précipitation Vent Pression Humidité
    00:00 +24°C° 0 mm 1 m/s 705 mmHg 81%
    01:00 +24°C° 0 mm 1 m/s 705 mmHg 82%
    02:00 +23°C° 0 mm 1 m/s 705 mmHg 84%
    03:00 +23°C° 0 mm 1 m/s 704 mmHg 85%
    04:00 +23°C° 0 mm 1 m/s 704 mmHg 86%
    05:00 +23°C° 0 mm 1 m/s 704 mmHg 85%
    06:00 +23°C° 0 mm 1 m/s 704 mmHg 84%
    07:00 +23°C° 0 mm 1 m/s 705 mmHg 84%
    08:00 +25°C° 0 mm 1 m/s 705 mmHg 75%
    09:00 +26°C° 0 mm 1 m/s 705 mmHg 67%
    10:00 +28°C° 0 mm 1 m/s 706 mmHg 58%
    11:00 +29°C° 0 mm 2 m/s 706 mmHg 53%
    12:00 +31°C° 0 mm 2 m/s 706 mmHg 49%
    13:00 +33°C° 0 mm 3 m/s 706 mmHg 44%
    14:00 +33°C° 0.1 mm 4 m/s 705 mmHg 45%
    15:00 +32°C° 0.1 mm 5 m/s 705 mmHg 47%
    16:00 +32°C° 0.1 mm 6 m/s 705 mmHg 49%
    17:00 +29°C° 1.5 mm 4 m/s 705 mmHg 56%
    18:00 +27°C° 1.5 mm 3 m/s 705 mmHg 62%
    19:00 +25°C° 1.5 mm 2 m/s 705 mmHg 69%
    20:00 +24°C° 0.7 mm 2 m/s 705 mmHg 71%
    21:00 +24°C° 0.7 mm 2 m/s 706 mmHg 73%
    22:00 +23°C° 0.7 mm 1 m/s 706 mmHg 75%
    23:00 +23°C° 0.1 mm 1 m/s 706 mmHg 77%

    23 Août, Vendredi

    Heure Température Précipitation Vent Pression Humidité
    00:00 +23°C° 0.1 mm 1 m/s 705 mmHg 78%
    01:00 +23°C° 0.1 mm 1 m/s 705 mmHg 79%
    02:00 +22°C° 0 mm 1 m/s 705 mmHg 80%
    03:00 +22°C° 0 mm 1 m/s 704 mmHg 82%
    04:00 +21°C° 0 mm 1 m/s 704 mmHg 83%
    05:00 +22°C° 0 mm 1 m/s 704 mmHg 82%
    06:00 +22°C° 0 mm 1 m/s 705 mmHg 81%
    07:00 +22°C° 0 mm 1 m/s 705 mmHg 79%
    08:00 +23°C° 0 mm 1 m/s 705 mmHg 74%
    09:00 +22°C° 0 mm 0 m/s 705 mmHg 68%
    10:00 +24°C° 0 mm 0 m/s 706 mmHg 62%
    11:00 +26°C° 0 mm 0 m/s 706 mmHg 57%
    12:00 +29°C° 0 mm 1 m/s 705 mmHg 51%
    13:00 +31°C° 0 mm 1 m/s 705 mmHg 45%
    14:00 +31°C° 0 mm 1 m/s 705 mmHg 43%
    15:00 +32°C° 0 mm 2 m/s 705 mmHg 42%
    16:00 +33°C° 0 mm 3 m/s 704 mmHg 40%
    17:00 +31°C° 0.1 mm 3 m/s 704 mmHg 45%
    18:00 +29°C° 0.1 mm 3 m/s 704 mmHg 49%
    19:00 +28°C° 0.1 mm 3 m/s 704 mmHg 53%
    20:00 +27°C° 0.2 mm 3 m/s 704 mmHg 56%
    21:00 +26°C° 0.2 mm 3 m/s 704 mmHg 58%
    22:00 +25°C° 0.2 mm 2 m/s 705 mmHg 61%
    23:00 +24°C° 0 mm 2 m/s 704 mmHg 62%

    24 Août, Samedi

    Heure Température Précipitation Vent Pression Humidité
    00:00 +24°C° 0 mm 1 m/s 704 mmHg 64%
    01:00 +23°C° 0 mm 1 m/s 704 mmHg 65%
    02:00 +23°C° 0.1 mm 1 m/s 703 mmHg 67%
    03:00 +23°C° 0.1 mm 1 m/s 703 mmHg 69%
    04:00 +22°C° 0.1 mm 1 m/s 703 mmHg 70%
    05:00 +22°C° 0.2 mm 1 m/s 703 mmHg 70%
    06:00 +22°C° 0.2 mm 1 m/s 703 mmHg 70%
    07:00 +23°C° 0.2 mm 1 m/s 703 mmHg 70%
    08:00 +24°C° 0 mm 1 m/s 704 mmHg 65%
    09:00 +26°C° 0 mm 1 m/s 704 mmHg 60%
    10:00 +28°C° 0 mm 1 m/s 705 mmHg 55%
    11:00 +29°C° 0 mm 1 m/s 705 mmHg 51%
    12:00 +30°C° 0 mm 1 m/s 705 mmHg 47%
    13:00 +31°C° 0 mm 2 m/s 704 mmHg 43%
    14:00 +31°C° 0 mm 2 m/s 704 mmHg 43%
    15:00 +31°C° 0 mm 3 m/s 704 mmHg 43%
    16:00 +31°C° 0 mm 3 m/s 704 mmHg 42%
    17:00 +30°C° 0.5 mm 3 m/s 704 mmHg 49%
    18:00 +28°C° 0.5 mm 3 m/s 703 mmHg 55%
    19:00 +27°C° 0.5 mm 3 m/s 703 mmHg 61%
    20:00 +26°C° 0.3 mm 3 m/s 704 mmHg 64%
    21:00 +25°C° 0.3 mm 2 m/s 704 mmHg 67%
    22:00 +24°C° 0.3 mm 1 m/s 704 mmHg 70%
    23:00 +24°C° 0.2 mm 1 m/s 704 mmHg 71%
    Voir plus